Radiation Dose at Monitoring Post of Fukushima Daini Nuclear Power Station
Date,Time,MP-1(microSv/h),MP-2(microSv/h),MP-3(microSv/h),MP-4(microSv/h),MP-5(microSv/h),MP-6(microSv/h),MP-7(microSv/h),Wind Direction,Wind Velocity(m/s),Rain
2016/04/15,00:00,0.442,0.256,0.458,0.407,0.386,0.209,0.179,west-northwest,8.7,No
2016/04/15,00:10,0.441,0.258,0.464,0.409,0.387,0.208,0.180,northwest,5.0,No
2016/04/15,00:20,0.442,0.256,0.459,0.409,0.387,0.208,0.179,north-northwest,3.6,No
2016/04/15,00:30,0.441,0.257,0.460,0.407,0.384,0.208,0.179,northwest,3.3,No
2016/04/15,00:40,0.445,0.256,0.460,0.409,0.388,0.209,0.179,northwest,4.8,No
2016/04/15,00:50,0.442,0.257,0.462,0.406,0.385,0.209,0.180,northwest,6.0,No
2016/04/15,01:00,0.443,0.258,0.462,0.409,0.390,0.208,0.179,west-northwest,6.4,No
2016/04/15,01:10,0.443,0.256,0.460,0.407,0.385,0.208,0.180,northwest,7.3,No
2016/04/15,01:20,0.442,0.258,0.462,0.409,0.388,0.208,0.180,north-northwest,6.7,No
2016/04/15,01:30,0.443,0.257,0.459,0.409,0.388,0.208,0.179,northwest,7.8,No
2016/04/15,01:40,0.441,0.258,0.464,0.407,0.387,0.209,0.180,northwest,7.5,No
2016/04/15,01:50,0.446,0.257,0.460,0.409,0.389,0.208,0.179,northwest,9.2,No
2016/04/15,02:00,0.442,0.257,0.465,0.407,0.387,0.208,0.181,northwest,8.0,No
2016/04/15,02:10,0.445,0.258,0.461,0.410,0.390,0.208,0.181,northwest,8.1,No
2016/04/15,02:20,0.441,0.257,0.463,0.408,0.388,0.209,0.179,west-northwest,7.1,No
2016/04/15,02:30,0.445,0.257,0.462,0.409,0.388,0.207,0.180,northwest,7.0,No
2016/04/15,02:40,0.443,0.257,0.464,0.409,0.388,0.209,0.180,northwest,7.1,No
2016/04/15,02:50,0.445,0.257,0.465,0.409,0.386,0.207,0.181,west-northwest,9.7,No
2016/04/15,03:00,0.443,0.258,0.463,0.411,0.391,0.209,0.181,west-northwest,10.8,No
2016/04/15,03:10,0.444,0.258,0.466,0.409,0.386,0.209,0.180,west-northwest,9.5,No
2016/04/15,03:20,0.446,0.258,0.463,0.410,0.389,0.209,0.179,west-northwest,7.5,No
2016/04/15,03:30,0.440,0.258,0.466,0.408,0.388,0.209,0.179,northwest,4.7,No
2016/04/15,03:40,0.446,0.257,0.461,0.409,0.388,0.209,0.180,north,3.6,No
2016/04/15,03:50,0.443,0.259,0.464,0.412,0.390,0.209,0.182,north-northwest,5.9,No
2016/04/15,04:00,0.446,0.258,0.463,0.408,0.387,0.209,0.179,northwest,5.1,No
2016/04/15,04:10,0.444,0.259,0.462,0.410,0.387,0.208,0.180,west-northwest,6.4,No
2016/04/15,04:20,0.444,0.258,0.464,0.410,0.387,0.209,0.180,northwest,6.8,No
2016/04/15,04:30,0.445,0.258,0.464,0.409,0.387,0.210,0.181,west-northwest,6.9,No
2016/04/15,04:40,0.443,0.260,0.464,0.410,0.388,0.209,0.181,northwest,3.8,No
2016/04/15,04:50,0.447,0.258,0.463,0.409,0.388,0.209,0.181,west-northwest,3.4,No
2016/04/15,05:00,0.443,0.258,0.463,0.411,0.386,0.209,0.180,northwest,3.6,No
2016/04/15,05:10,0.444,0.258,0.467,0.408,0.389,0.208,0.179,west-northwest,4.2,No
2016/04/15,05:20,0.444,0.256,0.461,0.409,0.388,0.208,0.181,northwest,5.8,No
2016/04/15,05:30,0.443,0.258,0.467,0.410,0.386,0.209,0.181,northwest,5.3,No
2016/04/15,05:40,0.445,0.258,0.462,0.410,0.389,0.209,0.181,northwest,6.9,No
2016/04/15,05:50,0.445,0.257,0.463,0.411,0.388,0.209,0.181,west-northwest,7.4,No
2016/04/15,06:00,0.445,0.258,0.466,0.410,0.388,0.210,0.182,west-northwest,9.5,No
2016/04/15,06:10,0.444,0.258,0.463,0.408,0.387,0.209,0.181,northwest,7.0,No
2016/04/15,06:20,0.444,0.257,0.466,0.411,0.387,0.210,0.180,northwest,4.9,No
2016/04/15,06:30,0.446,0.259,0.463,0.409,0.389,0.208,0.181,northwest,6.7,No
2016/04/15,06:40,0.442,0.257,0.464,0.410,0.386,0.209,0.181,west-northwest,7.2,No
2016/04/15,06:50,0.447,0.257,0.465,0.410,0.389,0.210,0.180,west-northwest,8.9,No
2016/04/15,07:00,0.443,0.258,0.463,0.410,0.387,0.208,0.179,west-northwest,8.7,No
2016/04/15,07:10,0.445,0.258,0.466,0.410,0.386,0.209,0.180,west-northwest,8.7,No
2016/04/15,07:20,0.446,0.257,0.463,0.407,0.390,0.209,0.181,northwest,9.7,No
2016/04/15,07:30,0.444,0.257,0.467,0.411,0.388,0.210,0.180,northwest,9.0,No
2016/04/15,07:40,0.448,0.258,0.465,0.411,0.388,0.209,0.181,west-northwest,7.6,No
2016/04/15,07:50,0.443,0.258,0.465,0.411,0.389,0.209,0.181,northwest,8.0,No
2016/04/15,08:00,0.446,0.258,0.466,0.408,0.389,0.209,0.180,west-northwest,5.8,No
2016/04/15,08:10,0.445,0.258,0.465,0.411,0.389,0.210,0.180,west-northwest,7.5,No
2016/04/15,08:20,0.446,0.258,0.466,0.408,0.385,0.209,0.181,west-northwest,10.9,No
2016/04/15,08:30,0.445,0.258,0.462,0.411,0.391,0.209,0.180,west-northwest,8.8,No
2016/04/15,08:40,0.445,0.256,0.469,0.408,0.387,0.209,0.181,northwest,8.4,No
2016/04/15,08:50,0.444,0.259,0.462,0.410,0.390,0.209,0.181,west-northwest,6.7,No
2016/04/15,09:00,0.447,0.257,0.467,0.407,0.386,0.210,0.181,northwest,10.0,No
2016/04/15,09:10,0.445,0.258,0.465,0.410,0.390,0.209,0.180,west-northwest,10.4,No
2016/04/15,09:20,0.446,0.258,0.465,0.406,0.386,0.210,0.180,west,10.9,No
2016/04/15,09:30,0.444,0.258,0.464,0.410,0.392,0.207,0.181,west-northwest,7.8,No
2016/04/15,09:40,0.446,0.258,0.464,0.409,0.387,0.209,0.181,northwest,4.7,No
2016/04/15,09:50,0.447,0.258,0.466,0.410,0.390,0.208,0.181,west-northwest,6.2,No
2016/04/15,10:00,0.447,0.259,0.464,0.412,0.386,0.211,0.181,west,6.9,No
2016/04/15,10:10,0.447,0.260,0.468,0.410,0.391,0.209,0.182,west-northwest,5.3,No
2016/04/15,10:20,0.446,0.257,0.463,0.411,0.387,0.210,0.181,northwest,6.7,No
2016/04/15,10:30,0.446,0.258,0.468,0.409,0.390,0.209,0.181,northwest,8.7,No
2016/04/15,10:40,0.448,0.257,0.463,0.412,0.389,0.210,0.181,west-northwest,5.0,No
2016/04/15,10:50,0.443,0.258,0.465,0.411,0.388,0.210,0.181,northwest,9.5,No
2016/04/15,11:00,0.447,0.258,0.466,0.407,0.391,0.209,0.181,west-northwest,7.8,No
2016/04/15,11:10,0.443,0.260,0.462,0.414,0.386,0.210,0.183,northwest,7.1,No
2016/04/15,11:20,0.448,0.259,0.468,0.412,0.391,0.208,0.184,northwest,7.9,No
2016/04/15,11:30,0.446,0.259,0.463,0.408,0.389,0.210,0.181,northwest,12.7,No
2016/04/15,11:40,0.446,0.259,0.465,0.409,0.389,0.210,0.183,northwest,7.5,No
2016/04/15,11:50,0.447,0.259,0.467,0.414,0.392,0.211,0.183,west-northwest,10.6,No
2016/04/15,12:00,0.444,0.260,0.463,0.409,0.389,0.211,0.182,west,9.9,No
2016/04/15,12:10,0.448,0.258,0.468,0.408,0.389,0.209,0.184,west-northwest,10.2,No
2016/04/15,12:20,0.447,0.260,0.468,0.412,0.392,0.210,0.183,northwest,7.6,No
2016/04/15,12:30,0.450,0.258,0.464,0.413,0.388,0.211,0.182,west-northwest,8.2,No
2016/04/15,12:40,0.450,0.260,0.468,0.410,0.390,0.211,0.184,northwest,7.2,No
2016/04/15,12:50,0.447,0.260,0.467,0.409,0.392,0.210,0.183,west-northwest,7.4,No
2016/04/15,13:00,0.451,0.259,0.464,0.416,0.387,0.212,0.182,west-northwest,10.2,No
2016/04/15,13:10,0.445,0.261,0.465,0.412,0.390,0.210,0.183,west-northwest,10.0,No
2016/04/15,13:20,0.449,0.258,0.468,0.409,0.392,0.211,0.182,northwest,6.8,No
2016/04/15,13:30,0.448,0.261,0.466,0.412,0.388,0.211,0.182,northwest,9.7,No
2016/04/15,13:40,0.449,0.261,0.468,0.416,0.388,0.211,0.184,west,7.7,No
2016/04/15,13:50,0.452,0.260,0.469,0.413,0.391,0.211,0.183,west-northwest,8.7,No
2016/04/15,14:00,0.446,0.261,0.465,0.409,0.388,0.211,0.182,west-northwest,7.9,No
2016/04/15,14:10,0.450,0.258,0.467,0.415,0.390,0.211,0.183,northwest,5.7,No
2016/04/15,14:20,0.450,0.262,0.470,0.413,0.392,0.210,0.183,west-northwest,7.3,No
2016/04/15,14:30,0.448,0.260,0.467,0.411,0.389,0.211,0.183,northwest,6.4,No
2016/04/15,14:40,0.448,0.261,0.468,0.414,0.389,0.210,0.185,northwest,6.9,No
2016/04/15,14:50,0.447,0.261,0.472,0.416,0.394,0.211,0.183,northwest,7.0,No
2016/04/15,15:00,0.450,0.259,0.467,0.414,0.388,0.212,0.184,northwest,8.8,No
2016/04/15,15:10,0.448,0.261,0.471,0.417,0.393,0.210,0.184,northwest,7.4,No
2016/04/15,15:20,0.453,0.259,0.470,0.414,0.394,0.212,0.184,north-northwest,7.2,No
2016/04/15,15:30,0.449,0.261,0.471,0.420,0.389,0.210,0.185,north,8.6,No
2016/04/15,15:40,0.453,0.259,0.471,0.415,0.393,0.211,0.185,north-northwest,8.9,No
2016/04/15,15:50,0.450,0.261,0.472,0.419,0.390,0.212,0.184,north-northwest,8.6,No
2016/04/15,16:00,0.451,0.260,0.470,0.416,0.391,0.211,0.184,north-northwest,9.0,No
2016/04/15,16:10,0.448,0.261,0.474,0.419,0.392,0.211,0.184,north-northwest,9.3,No
2016/04/15,16:20,0.450,0.261,0.471,0.415,0.389,0.211,0.185,north-northwest,11.4,No
2016/04/15,16:30,0.448,0.261,0.474,0.417,0.394,0.210,0.184,north-northwest,8.8,No
2016/04/15,16:40,0.452,0.261,0.469,0.415,0.390,0.210,0.184,north-northwest,11.4,No
2016/04/15,16:50,0.449,0.261,0.474,0.417,0.395,0.210,0.185,north-northwest,8.4,No
2016/04/15,17:00,0.453,0.261,0.469,0.417,0.390,0.212,0.184,north-northwest,6.6,No
2016/04/15,17:10,0.449,0.260,0.472,0.416,0.395,0.211,0.184,northwest,5.3,No
2016/04/15,17:20,0.452,0.262,0.471,0.419,0.391,0.212,0.185,north-northwest,4.6,No
2016/04/15,17:30,0.450,0.261,0.472,0.416,0.395,0.212,0.185,north-northwest,5.6,No
2016/04/15,17:40,0.451,0.260,0.470,0.417,0.394,0.212,0.184,northwest,4.8,No
2016/04/15,17:50,0.451,0.262,0.470,0.417,0.392,0.211,0.184,north,6.7,No
2016/04/15,18:00,0.450,0.260,0.472,0.414,0.393,0.211,0.184,north,6.2,No
2016/04/15,18:10,0.451,0.260,0.469,0.416,0.393,0.212,0.184,north,4.5,No
2016/04/15,18:20,0.450,0.262,0.472,0.416,0.393,0.212,0.184,north-northwest,3.6,No
2016/04/15,18:30,0.451,0.261,0.471,0.415,0.392,0.212,0.184,north-northwest,3.1,No
2016/04/15,18:40,0.453,0.260,0.471,0.417,0.392,0.211,0.184,north-northwest,6.6,No
2016/04/15,18:50,0.449,0.261,0.472,0.415,0.392,0.212,0.184,north,4.8,No
2016/04/15,19:00,0.452,0.260,0.470,0.417,0.392,0.212,0.184,north-northwest,4.5,No
2016/04/15,19:10,0.450,0.260,0.473,0.416,0.391,0.212,0.184,north,4.4,No
2016/04/15,19:20,0.449,0.262,0.471,0.415,0.392,0.213,0.184,north-northwest,4.2,No
2016/04/15,19:30,0.451,0.260,0.471,0.418,0.391,0.211,0.183,north-northwest,3.6,No
2016/04/15,19:40,0.449,0.261,0.473,0.417,0.391,0.212,0.185,north,3.4,No
2016/04/15,19:50,0.452,0.261,0.471,0.414,0.392,0.213,0.185,north,3.7,No
2016/04/15,20:00,0.450,0.260,0.472,0.417,0.391,0.211,0.185,north-northwest,3.3,No
2016/04/15,20:10,0.450,0.260,0.473,0.415,0.391,0.211,0.185,north,4.4,No
2016/04/15,20:20,0.454,0.261,0.469,0.416,0.391,0.211,0.184,north,4.5,No
2016/04/15,20:30,0.451,0.261,0.471,0.416,0.390,0.212,0.186,north-northwest,4.3,No
2016/04/15,20:40,0.450,0.260,0.472,0.414,0.391,0.211,0.185,northwest,3.8,No
2016/04/15,20:50,0.452,0.261,0.471,0.416,0.392,0.212,0.185,north-northwest,4.1,No
2016/04/15,21:00,0.450,0.261,0.473,0.416,0.391,0.213,0.185,northwest,3.2,No
2016/04/15,21:10,0.452,0.261,0.471,0.414,0.389,0.212,0.185,north-northwest,5.0,No
2016/04/15,21:20,0.452,0.260,0.471,0.416,0.391,0.212,0.183,north-northwest,3.2,No
2016/04/15,21:30,0.450,0.260,0.471,0.417,0.392,0.212,0.185,west-northwest,4.8,No
2016/04/15,21:40,0.452,0.260,0.472,0.415,0.389,0.212,0.184,west-northwest,5.4,No
2016/04/15,21:50,0.450,0.260,0.470,0.416,0.392,0.213,0.185,west,4.8,No
2016/04/15,22:00,0.451,0.261,0.472,0.417,0.391,0.211,0.185,west,4.2,No
2016/04/15,22:10,0.451,0.261,0.470,0.416,0.387,0.211,0.184,west,6.4,No
2016/04/15,22:20,0.454,0.261,0.471,0.415,0.390,0.212,0.184,west,6.5,No
2016/04/15,22:30,0.450,0.261,0.473,0.417,0.393,0.212,0.184,west,6.7,No
2016/04/15,22:40,0.451,0.261,0.472,0.418,0.390,0.212,0.185,west,5.7,No
2016/04/15,22:50,0.452,0.261,0.470,0.415,0.390,0.212,0.186,west,6.2,No
2016/04/15,23:00,0.451,0.261,0.472,0.417,0.390,0.212,0.184,west,5.7,No
2016/04/15,23:10,0.450,0.261,0.471,0.417,0.388,0.211,0.184,west,5.0,No
2016/04/15,23:20,0.452,0.261,0.471,0.417,0.389,0.212,0.184,west,4.3,No
2016/04/15,23:30,0.449,0.260,0.472,0.415,0.390,0.212,0.184,west,4.4,No
2016/04/15,23:40,0.452,0.261,0.473,0.415,0.391,0.212,0.184,west,4.3,No
2016/04/15,23:50,0.452,0.261,0.471,0.417,0.390,0.211,0.184,west-southwest,4.8,No
